Location: *
(46.3500°N, 10.9000°E)
Time: 16:36:04
(UTC+00:00)

SR - All Passes

Search period start: 11 April 2021 00:00
Search period end: 21 April 2021 00:00
Orbit: 573 x 882 km, 66.7° (Epoch: 11 April)

Date Brightness Start Highest point End Pass type
(mag) Time Alt. Az. Time Alt. Az. Time Alt. Az.
11 Apr - 07:18:35 10° SE 07:21:19 14° ESE 07:24:07 10° ENE daylight
11 Apr - 08:56:52 10° SSW 09:02:26 81° ESE 09:08:22 10° NE daylight
11 Apr - 10:40:33 10° W 10:45:16 26° NW 10:50:09 10° NNE daylight
11 Apr - 12:27:56 10° NNW 12:29:36 11° NNW 12:31:15 10° N daylight
11 Apr - 14:12:48 10° N 14:14:35 11° NNE 14:16:21 10° NNE daylight
11 Apr - 15:53:56 10° NNW 15:58:52 26° NE 16:03:39 10° E daylight
11 Apr - 17:35:45 10° NW 17:41:39 77° WSW 17:47:11 10° SSE daylight
11 Apr - 19:20:16 10° WNW 19:22:43 13° W 19:25:07 10° SW visible
12 Apr - 08:07:32 10° S 08:12:46 45° ESE 08:18:21 10° NE daylight
12 Apr - 09:49:44 10° WSW 09:55:01 39° NW 10:00:34 10° NNE daylight
12 Apr - 11:35:56 10° NW 11:38:53 14° NNW 11:41:52 10° N daylight
12 Apr - 15:04:24 10° NNW 15:08:28 19° NNE 15:12:26 10° ENE daylight
12 Apr - 16:45:56 10° NNW 16:51:49 63° NE 16:57:20 10° SE daylight
12 Apr - 18:28:51 10° NW 18:33:27 25° WSW 18:37:51 10° SSW visible
13 Apr - 07:18:54 10° SSE 07:23:20 25° ESE 07:27:58 10° NE daylight
13 Apr - 08:59:24 10° SW 09:04:58 63° NW 09:10:53 10° NNE daylight
13 Apr - 10:44:18 10° WNW 10:48:19 19° NNW 10:52:24 10° NNE daylight
13 Apr - 14:14:57 10° N 14:17:54 14° NNE 14:20:48 10° NE daylight
13 Apr - 15:56:16 10° NNW 16:01:46 38° NE 16:07:00 10° ESE daylight
13 Apr - 17:38:28 10° NW 17:44:00 45° WSW 17:49:12 10° S daylight
14 Apr - 06:31:37 10° SE 06:34:04 13° E 06:36:34 10° ENE daylight
14 Apr - 08:09:33 10° SSW 08:15:08 77° ESE 08:21:04 10° NE daylight
14 Apr - 09:53:05 10° W 09:57:55 27° NW 10:02:53 10° NNE daylight
14 Apr - 11:40:23 10° NNW 11:42:11 11° NNW 11:44:01 10° N daylight
14 Apr - 13:25:34 10° N 13:27:11 11° NNE 13:28:47 10° NNE daylight
14 Apr - 15:06:40 10° NNW 15:11:31 25° NE 15:16:11 10° E daylight
14 Apr - 16:48:27 10° NW 16:54:21 81° WSW 16:59:52 10° SSE daylight
14 Apr - 18:32:43 10° WNW 18:35:28 14° WSW 18:38:08 10° SW visible
15 Apr - 07:20:17 10° S 07:25:30 43° ESE 07:31:01 10° NE daylight
15 Apr - 09:02:20 10° WSW 09:07:41 41° NW 09:13:17 10° NNE daylight
15 Apr - 10:48:25 10° NW 10:51:29 14° NNW 10:54:36 10° N daylight
15 Apr - 14:17:09 10° NNW 14:21:05 18° NNE 14:24:56 10° ENE daylight
15 Apr - 15:58:39 10° NNW 16:04:29 59° NE 16:09:58 10° SE daylight
15 Apr - 17:41:28 10° NW 17:46:11 26° WSW 17:50:39 10° SSW daylight
16 Apr - 06:31:44 10° SSE 06:36:04 24° ESE 06:40:35 10° NE daylight
16 Apr - 08:12:02 10° SW 08:17:40 67° NW 08:23:35 10° NNE daylight
16 Apr - 09:56:49 10° WNW 10:00:56 19° NNW 10:05:08 10° NNE daylight
16 Apr - 13:27:41 10° N 13:30:30 13° NNE 13:33:16 10° NE daylight
16 Apr - 15:08:59 10° NNW 15:14:25 37° NE 15:19:35 10° ESE daylight
16 Apr - 16:51:08 10° NW 16:56:44 48° WSW 17:01:56 10° S daylight
17 Apr - 05:44:42 10° ESE 05:46:49 12° E 05:48:58 10° ENE daylight
17 Apr - 07:22:16 10° SSW 07:27:50 73° ESE 07:33:44 10° NE daylight
17 Apr - 09:05:39 10° W 09:10:33 28° NW 09:15:36 10° NNE daylight
17 Apr - 10:52:50 10° NW 10:54:47 12° NNW 10:56:45 10° N daylight
17 Apr - 12:38:20 10° N 12:39:46 11° NNE 12:41:12 10° NNE daylight
17 Apr - 14:19:23 10° NNW 14:24:09 24° NE 14:28:44 10° E daylight
17 Apr - 16:01:09 10° NW 16:07:02 86° WSW 16:12:32 10° SSE daylight
17 Apr - 17:45:12 10° WNW 17:48:12 15° WSW 17:51:08 10° SW daylight
18 Apr - 06:33:02 10° S 06:38:13 40° ESE 06:43:41 10° NE daylight
18 Apr - 08:14:57 10° WSW 08:20:21 43° NW 08:26:00 10° NNE daylight
18 Apr - 10:00:53 10° WNW 10:04:06 15° NNW 10:07:21 10° N daylight
18 Apr - 13:29:53 10° NNW 13:33:42 17° NNE 13:37:26 10° ENE daylight
18 Apr - 15:11:21 10° NNW 15:17:10 56° NE 15:22:36 10° SE daylight
18 Apr - 16:54:06 10° NW 16:58:55 28° WSW 17:03:27 10° SSW daylight
19 Apr - 05:44:34 10° SSE 05:48:48 22° ESE 05:53:11 10° ENE daylight
19 Apr - 07:24:41 10° SW 07:30:20 70° NW 07:36:18 10° NNE daylight
19 Apr - 09:09:20 10° WNW 09:13:34 20° NNW 09:17:52 10° NNE daylight
19 Apr - 10:57:48 10° N 10:58:09 10° N 10:58:30 10° N daylight
19 Apr - 12:40:25 10° N 12:43:06 13° NNE 12:45:44 10° NE daylight
19 Apr - 14:21:42 10° NNW 14:27:04 35° NE 14:32:10 10° ESE daylight
19 Apr - 16:03:49 10° NW 16:09:25 51° WSW 16:14:40 10° S daylight
20 Apr - 04:57:53 10° ESE 04:59:33 11° E 05:01:16 10° E daylight
20 Apr - 06:34:57 10° SSW 06:40:32 69° ESE 06:46:26 10° NE daylight
20 Apr - 08:18:13 10° W 08:23:11 29° NW 08:28:19 10° NNE daylight
20 Apr - 10:05:16 10° NW 10:07:23 12° NNW 10:09:29 10° N daylight
20 Apr - 11:51:07 10° N 11:52:22 11° N 11:53:36 10° NNE daylight
20 Apr - 13:32:07 10° NNW 13:36:47 23° NE 13:41:16 10° E daylight
20 Apr - 15:13:51 10° NNW 15:19:44 90° SW 15:25:13 10° SSE daylight
20 Apr - 16:57:43 10° WNW 17:00:57 16° WSW 17:04:04 10° SW daylight
